Hays, KS

3:41 AM CDT on May 30, 2017 (GMT -0500)
Hays Regional

Weather History for KHYS - November, 2013

Change the Weather History Date:

Sunday, November 24, 2013

  Actual Average Record
Temperature  
Mean Temperature 26 °F -  
Max Temperature 33 °F 48 °F 73 °F (2011)
Min Temperature 19 °F 25 °F 5 °F (2003)
Degree Days  
Heating Degree Days 39    
Moisture  
Dew Point 19 °F    
Average Humidity 76    
Maximum Humidity 87    
Minimum Humidity 59    
Precipitation  
Precipitation 0.00 in - - ()
Sea Level Pressure  
Sea Level Pressure 30.41 in    
Wind  
Wind Speed 10 mph (South)    
Max Wind Speed 20 mph    
Max Gust Speed 23 mph    
Visibility 10 miles    
Events      
Averages and records for this station are not official NWS values.
T = Trace of Precipitation, MM = Missing Value Source: NWS Daily Summary

Daily Weather History Graph

Daily Weather History Graph

Search for Another Location

Airport or City:

Trip Planner

Search our weather history database for the weather conditions in past years. The results will help you decide how hot, cold, wet, or windy it might be!

Date:

Astronomy

Nov. 24, 2013 Rise Set
Actual Time 7:29 AM CST 5:17 PM CST
Civil Twilight 7:00 AM CST 5:46 PM CST
Nautical Twilight 6:27 AM CST 6:19 PM CST
Astronomical Twilight 5:56 AM CST 6:51 PM CST
Moon 11:43 PM CST (11/24) 12:19 PM CST (11/24)
Length of Visible Light 10h 46m
Length of Day
9h 48m
Waning Gibbous, 60% of the Moon is Illuminated
Nov 24
Waning Gibbous
Nov 25
Last Quarter
Dec 2
New
Dec 9
First Quarter
Dec 17
Full

Hourly Weather History & Observations

Time (CST) Temp. Windchill Dew Point Humidity Pressure Visibility Wind Dir Wind Speed Gust Speed Precip Events Conditions
12:15 AM 21.2 °F 13.6 °F 15.8 °F 80% 30.65 in 10.0 mi ESE 5.8 mph - N/A   Clear
12:35 AM 19.4 °F 11.5 °F 15.8 °F 86% 30.64 in 10.0 mi ESE 5.8 mph - N/A   Clear
12:55 AM 19.4 °F 12.8 °F 15.8 °F 86% 30.63 in 10.0 mi ESE 4.6 mph - N/A   Clear
1:15 AM 19.4 °F 11.5 °F 15.8 °F 86% 30.62 in 10.0 mi SE 5.8 mph - N/A   Clear
1:35 AM 19.4 °F 11.5 °F 15.8 °F 86% 30.62 in 10.0 mi SSE 5.8 mph - N/A   Clear
1:55 AM 19.4 °F 9.5 °F 15.8 °F 86% 30.64 in 10.0 mi South 8.1 mph - N/A   Clear
2:15 AM 19.4 °F 9.5 °F 15.8 °F 86% 30.64 in 10.0 mi South 8.1 mph - N/A   Clear
2:35 AM 19.4 °F 11.5 °F 15.8 °F 86% 30.64 in 10.0 mi South 5.8 mph - N/A   Clear
2:55 AM 21.2 °F 13.6 °F 15.8 °F 80% 30.63 in 10.0 mi SSE 5.8 mph - N/A   Clear
3:15 AM 21.2 °F 12.6 °F 15.8 °F 80% 30.62 in 10.0 mi South 6.9 mph - N/A   Clear
3:35 AM 21.2 °F 10.9 °F 17.6 °F 86% 30.62 in 10.0 mi South 9.2 mph - N/A   Clear
3:55 AM 21.2 °F 11.7 °F 17.6 °F 86% 30.60 in 10.0 mi South 8.1 mph - N/A   Clear
4:15 AM 21.2 °F 11.7 °F 17.6 °F 86% 30.59 in 10.0 mi South 8.1 mph - N/A   Clear
4:35 AM 21.2 °F 10.9 °F 17.6 °F 86% 30.59 in 10.0 mi South 9.2 mph - N/A   Clear
4:55 AM 21.2 °F 10.1 °F 17.6 °F 86% 30.57 in 10.0 mi SSE 10.4 mph - N/A   Partly Cloudy
5:15 AM 21.2 °F 9.5 °F 17.6 °F 86% 30.57 in 10.0 mi SSE 11.5 mph - N/A   Partly Cloudy
5:35 AM 21.2 °F 9.5 °F 15.8 °F 80% 30.56 in 10.0 mi SSE 11.5 mph - N/A   Clear
5:55 AM 21.2 °F 9.5 °F 15.8 °F 80% 30.56 in 10.0 mi SSE 11.5 mph - N/A   Clear
6:15 AM 21.2 °F 11.7 °F 15.8 °F 80% 30.55 in 10.0 mi SSE 8.1 mph - N/A   Clear
6:35 AM 21.2 °F 10.1 °F 15.8 °F 80% 30.54 in 10.0 mi SSE 10.4 mph - N/A   Clear
6:55 AM 21.2 °F 10.1 °F 15.8 °F 80% 30.54 in 10.0 mi South 10.4 mph - N/A   Clear
7:15 AM 21.2 °F 10.1 °F 15.8 °F 80% 30.54 in 10.0 mi South 10.4 mph - N/A   Clear
7:35 AM 21.2 °F 10.1 °F 15.8 °F 80% 30.53 in 10.0 mi SSE 10.4 mph - N/A   Clear
7:55 AM 21.2 °F 10.1 °F 15.8 °F 80% 30.52 in 10.0 mi SSE 10.4 mph - N/A   Clear
8:15 AM 23.0 °F 12.4 °F 15.8 °F 74% 30.52 in 10.0 mi South 10.4 mph - N/A   Clear
8:35 AM 23.0 °F 13.1 °F 15.8 °F 74% 30.52 in 10.0 mi South 9.2 mph - N/A   Clear
8:55 AM 24.8 °F 14.0 °F 15.8 °F 69% 30.52 in 10.0 mi SSE 11.5 mph - N/A   Clear
9:15 AM 24.8 °F 13.4 °F 17.6 °F 74% 30.52 in 10.0 mi South 12.7 mph - N/A   Clear
9:35 AM 24.8 °F 13.4 °F 15.8 °F 69% 30.51 in 10.0 mi South 12.7 mph - N/A   Mostly Cloudy
9:55 AM 26.6 °F 16.2 °F 15.8 °F 64% 30.51 in 10.0 mi South 11.5 mph - N/A   Overcast
10:15 AM 26.6 °F 15.7 °F 15.8 °F 64% 30.50 in 10.0 mi South 12.7 mph - N/A   Overcast
10:35 AM 28.4 °F 17.5 °F 15.8 °F 59% 30.49 in 10.0 mi South 13.8 mph - N/A   Overcast
10:55 AM 28.4 °F 18.0 °F 15.8 °F 59% 30.48 in 10.0 mi South 12.7 mph - N/A   Overcast
11:15 AM 28.4 °F 17.5 °F 15.8 °F 59% 30.47 in 10.0 mi South 13.8 mph - N/A   Overcast
11:35 AM 30.2 °F 20.2 °F 17.6 °F 60% 30.45 in 10.0 mi South 12.7 mph - N/A   Overcast
11:55 AM 30.2 °F 19.3 °F 19.4 °F 64% 30.43 in 10.0 mi South 15.0 mph - N/A   Overcast
12:15 PM 32.0 °F 21.6 °F 21.2 °F 64% 30.41 in 10.0 mi SSW 15.0 mph - N/A   Overcast
12:35 PM 32.0 °F 21.6 °F 21.2 °F 64% 30.40 in 10.0 mi South 15.0 mph - N/A   Overcast
12:55 PM 33.8 °F 23.5 °F 21.2 °F 60% 30.39 in 10.0 mi SSW 16.1 mph - N/A   Overcast
1:15 PM 33.8 °F 23.5 °F 23.0 °F 65% 30.38 in 10.0 mi South 16.1 mph - N/A   Overcast
1:35 PM 33.8 °F 23.5 °F 23.0 °F 65% 30.37 in 10.0 mi South 16.1 mph - N/A   Overcast
1:55 PM 33.8 °F 22.5 °F 23.0 °F 65% 30.36 in 10.0 mi South 19.6 mph - N/A   Mostly Cloudy
2:15 PM 32.0 °F 22.5 °F 24.8 °F 75% 30.35 in 1.8 mi SSW 12.7 mph - N/A   Overcast
2:35 PM 32.0 °F 21.2 °F 28.4 °F 87% 30.34 in 4.0 mi South 16.1 mph - N/A   Overcast
2:55 PM 30.2 °F 20.8 °F 26.6 °F 86% 30.33 in 1.5 mi South 11.5 mph - N/A   Overcast
3:15 PM 30.2 °F 21.3 °F 26.6 °F 86% 30.31 in 0.8 mi South 10.4 mph - N/A   Overcast
3:35 PM 30.2 °F 21.9 °F 26.6 °F 86% 30.31 in 7.0 mi South 9.2 mph - N/A   Overcast
3:55 PM 30.2 °F 20.8 °F 26.6 °F 86% 30.31 in 10.0 mi South 11.5 mph - N/A   Overcast
4:15 PM 30.2 °F 19.3 °F 26.6 °F 86% 30.29 in 10.0 mi SSE 15.0 mph - N/A   Overcast
4:35 PM 30.2 °F 18.9 °F 26.6 °F 86% 30.29 in 10.0 mi SSE 16.1 mph - N/A   Overcast
4:55 PM 30.2 °F 18.1 °F 24.8 °F 80% 30.28 in 10.0 mi South 18.4 mph 23.0 mph N/A   Overcast
5:15 PM 30.2 °F 18.9 °F 24.8 °F 80% 30.27 in 10.0 mi South 16.1 mph - N/A   Overcast
5:35 PM 30.2 °F 18.5 °F 23.0 °F 75% 30.26 in 10.0 mi South 17.3 mph - N/A   Overcast
5:55 PM 30.2 °F 18.1 °F 23.0 °F 75% 30.26 in 10.0 mi South 18.4 mph - N/A   Overcast
6:15 PM 28.4 °F 16.2 °F 21.2 °F 74% 30.25 in 10.0 mi South 17.3 mph - N/A   Overcast
6:35 PM 28.4 °F 16.2 °F 21.2 °F 74% 30.24 in 10.0 mi South 17.3 mph - N/A   Overcast
6:55 PM 28.4 °F 16.6 °F 21.2 °F 74% 30.23 in 10.0 mi South 16.1 mph - N/A   Overcast
7:15 PM 26.6 °F 13.1 °F 19.4 °F 74% 30.22 in 10.0 mi South 19.6 mph - N/A   Scattered Clouds
7:35 PM 26.6 °F 13.8 °F 19.4 °F 74% 30.22 in 10.0 mi South 17.3 mph 21.9 mph N/A   Clear
7:55 PM 26.6 °F 14.7 °F 19.4 °F 74% 30.21 in 10.0 mi South 15.0 mph - N/A   Clear
8:15 PM 26.6 °F 14.7 °F 17.6 °F 69% 30.21 in 10.0 mi South 15.0 mph 20.7 mph N/A   Partly Cloudy
8:35 PM 26.6 °F 14.7 °F 19.4 °F 74% 30.20 in 10.0 mi South 15.0 mph 20.7 mph N/A   Mostly Cloudy
8:55 PM 26.6 °F 13.8 °F 19.4 °F 74% 30.19 in 10.0 mi South 17.3 mph - N/A   Overcast
9:15 PM 26.6 °F 14.3 °F 19.4 °F 74% 30.18 in 10.0 mi South 16.1 mph - N/A   Overcast
9:35 PM 26.6 °F 14.3 °F 19.4 °F 74% 30.18 in 10.0 mi South 16.1 mph - N/A   Overcast
9:55 PM 26.6 °F 15.7 °F 19.4 °F 74% 30.17 in 10.0 mi South 12.7 mph - N/A   Overcast
10:15 PM 26.6 °F 14.3 °F 19.4 °F 74% 30.17 in 10.0 mi South 16.1 mph - N/A   Overcast
10:35 PM 26.6 °F 15.7 °F 19.4 °F 74% 30.17 in 10.0 mi South 12.7 mph - N/A   Overcast
10:55 PM 26.6 °F 15.7 °F 19.4 °F 74% 30.17 in 10.0 mi South 12.7 mph - N/A   Overcast
11:15 PM 26.6 °F 15.7 °F 19.4 °F 74% 30.17 in 10.0 mi South 12.7 mph - N/A   Overcast
11:35 PM 26.6 °F 16.8 °F 21.2 °F 80% 30.16 in 10.0 mi South 10.4 mph - N/A   Overcast
11:55 PM 26.6 °F 16.2 °F 21.2 °F 80% 30.16 in 10.0 mi South 11.5 mph - N/A   Overcast